MB7UCW-13 Weather Reports


time (UTC)temp
C
wind
direction
speed
KPH
gust
KPH
rain 1hr
cm
rain 24hr
cm
rain mn
cm
humidity
%
barometer
mb
20260507203023 11 177 3.2 6.4 0.00 0.00 0.00 77 1014.8
20260507201502 12 178 3.2 11.3 0.00 0.00 0.00 76 1014.7
20260507200002 12 172 3.2 11.3 0.00 0.00 0.00 76 1014.6
20260507194502 12 171 3.2 8.0 0.00 0.00 0.00 74 1014.6
20260507193024 12 150 3.2 8.0 0.00 0.00 0.00 73 1014.3
20260507191503 12 157 3.2 8.0 0.00 0.00 0.00 72 1014.4
20260507190004 12 191 4.8 12.9 0.00 0.00 0.00 70 1014.4
20260507184503 12 184 8.0 19.3 0.00 0.00 0.00 68 1014.2
20260507183023 13 185 8.0 17.7 0.00 0.00 0.00 67 1014.2
20260507181503 13 169 8.0 22.5 0.00 0.00 0.00 67 1014.2
20260507180002 13 207 8.0 12.9 0.00 0.00 0.00 68 1014.0
20260507174503 13 201 6.4 16.1 0.00 0.00 0.00 66 1013.9
20260507173003 14 209 6.4 20.9 0.00 0.00 0.00 63 1014.0
20260507171503 14 229 3.2 6.4 0.00 0.00 0.00 60 1014.0
20260507170003 14 190 3.2 6.4 0.00 0.00 0.00 60 1013.9
20260507164502 14 194 3.2 11.3 0.00 0.00 0.00 57 1014.0
20260507163003 15 190 4.8 16.1 0.00 0.00 0.00 55 1013.9
20260507161524 15 170 8.0 16.1 0.00 0.00 0.00 54 1014.0
20260507160003 15 180 9.7 20.9 0.00 0.00 0.00 53 1014.1
20260507154503 15 165 11.3 20.9 0.00 0.00 0.00 52 1014.0
20260507153023 16 180 9.7 22.5 0.00 0.00 0.00 51 1014.2
20260507151503 16 177 11.3 24.1 0.00 0.00 0.00 50 1014.2
20260507150003 15 167 12.9 24.1 0.00 0.00 0.00 50 1014.2
20260507144502 16 168 9.7 22.5 0.00 0.00 0.00 53 1014.3
20260507143003 15 169 11.3 20.9 0.00 0.00 0.00 54 1014.5
20260507141523 15 188 11.3 22.5 0.00 0.00 0.00 56 1014.7
20260507140024 16 169 9.7 20.9 0.00 0.00 0.00 56 1014.8
20260507134524 15 161 9.7 24.1 0.00 0.00 0.00 56 1014.9
20260507133002 16 170 9.7 24.1 0.00 0.00 0.00 55 1014.9
20260507131503 15 170 11.3 22.5 0.00 0.00 0.00 55 1015.0
20260507130002 15 192 11.3 24.1 0.00 0.00 0.00 58 1015.0
20260507124502 15 173 12.9 25.7 0.00 0.00 0.00 55 1015.1
20260507123003 15 157 9.7 20.9 0.00 0.00 0.00 61 1015.1
20260507121502 14 167 9.7 20.9 0.00 0.00 0.00 61 1015.2
20260507120002 14 149 12.9 20.9 0.00 0.00 0.00 63 1015.3
20260507114503 13 168 9.7 24.1 0.00 0.00 0.00 66 1015.4
20260507113024 13 174 9.7 19.3 0.00 0.00 0.00 69 1015.5
20260507111503 12 167 8.0 19.3 0.00 0.00 0.00 71 1015.6
20260507110002 12 168 8.0 19.3 0.00 0.00 0.00 74 1015.6
20260507104503 11 164 9.7 20.9 0.00 0.00 0.00 74 1015.8
20260507103002 11 148 12.9 20.9 0.00 0.00 0.00 75 1015.9
20260507101502 11 160 9.7 19.3 0.00 0.00 0.00 79 1015.8
20260507100003 10 148 9.7 17.7 0.00 0.00 0.00 80 1015.8
20260507094502 10 144 9.7 19.3 0.00 0.00 0.00 81 1015.7
20260507093003 10 150 11.3 19.3 0.00 0.00 0.00 82 1015.7
20260507091502 9 169 6.4 16.1 0.00 0.00 0.00 83 1015.8
20260507090002 9 151 6.4 16.1 0.00 0.00 0.00 84 1015.8
20260507084524 8 165 8.0 17.7 0.00 0.00 0.00 85 1015.9
20260507083003 8 155 6.4 16.1 0.00 0.00 0.00 85 1015.9
20260507081502 8 166 6.4 14.5 0.00 0.00 0.00 86 1015.8
20260507080003 7 153 8.0 16.1 0.00 0.00 0.00 86 1016.0
20260507074523 7 137 6.4 16.1 0.00 0.00 0.00 87 1016.0
20260507073003 7 153 8.0 17.7 0.00 0.00 0.00 87 1016.0
20260507071503 7 147 9.7 20.9 0.00 0.00 0.00 87 1015.9
20260507070004 7 139 11.3 22.5 0.00 0.00 0.00 87 1015.7
20260507064502 7 147 9.7 17.7 0.00 0.00 0.00 87 1015.7
20260507063003 7 146 11.3 24.1 0.00 0.00 0.00 87 1015.7
20260507061502 7 157 8.0 16.1 0.00 0.00 0.00 87 1015.7
20260507060003 7 157 8.0 16.1 0.00 0.00 0.00 87 1015.7
20260507054503 7 154 8.0 19.3 0.00 0.00 0.00 87 1015.5
20260507053003 6 152 9.7 17.7 0.00 0.00 0.00 87 1015.5
20260507051503 6 147 8.0 17.7 0.00 0.00 0.00 87 1015.4
20260507050024 6 139 6.4 16.1 0.00 0.00 0.00 87 1015.4
20260507044503 6 144 6.4 14.5 0.00 0.00 0.00 87 1015.4
20260507043003 6 140 4.8 12.9 0.00 0.00 0.00 87 1015.4
20260507041503 6 139 4.8 16.1 0.00 0.00 0.00 87 1015.4
20260507040003 6 134 6.4 16.1 0.00 0.00 0.00 87 1015.4
20260507034502 6 142 6.4 12.9 0.00 0.00 0.00 87 1015.4
20260507033024 6 145 6.4 12.9 0.00 0.00 0.00 87 1015.5
20260507031503 6 151 4.8 11.3 0.00 0.00 0.00 87 1015.4
20260507030003 6 162 4.8 9.7 0.00 0.00 0.00 86 1015.4
20260507024502 6 163 4.8 9.7 0.00 0.00 0.00 86 1015.5
20260507023003 6 165 6.4 14.5 0.00 0.00 0.00 86 1015.4
20260507021503 6 154 4.8 12.9 0.00 0.00 0.00 85 1015.4
20260507020003 7 134 4.8 11.3 0.00 0.00 0.00 85 1015.4
20260507014503 7 146 4.8 14.5 0.00 0.00 0.00 85 1015.5
20260507013002 7 137 8.0 16.1 0.00 0.00 0.00 85 1015.6
20260507011503 7 146 4.8 14.5 0.00 0.00 0.00 85 1015.9
20260507010003 7 132 4.8 14.5 0.00 0.00 0.00 84 1015.8
20260507004503 7 137 6.4 12.9 0.00 0.00 0.00 84 1015.7
20260507003003 7 141 6.4 16.1 0.00 0.00 0.00 84 1015.9
20260507001503 7 133 6.4 16.1 0.00 0.00 0.00 84 1015.9
20260507000003 7 135 8.0 14.5 0.00 0.00 0.00 84 1016.0
20260506234503 7 137 6.4 19.3 0.00 0.00 0.00 83 1015.9
20260506233003 7 128 8.0 19.3 0.00 0.00 0.00 83 1015.9
20260506231524 7 155 8.0 17.7 0.00 0.00 0.00 82 1015.8
20260506230003 8 148 6.4 19.3 0.00 0.00 0.00 82 1015.8
20260506224503 8 146 8.0 20.9 0.00 0.00 0.00 80 1015.7
20260506223003 8 139 8.0 17.7 0.00 0.00 0.00 80 1015.6
20260506221503 8 132 9.7 17.7 0.00 0.00 0.00 79 1015.5
20260506220003 8 125 8.0 17.7 0.00 0.00 0.00 78 1015.5
20260506214503 8 127 8.0 16.1 0.00 0.00 0.00 77 1015.4
20260506213003 8 120 6.4 16.1 0.00 0.00 0.00 76 1015.3
20260506211503 8 132 4.8 11.3 0.00 0.00 0.00 76 1015.3
20260506210024 8 128 6.4 14.5 0.00 0.00 0.00 76 1015.3
20260506204524 9 135 4.8 12.9 0.00 0.00 0.00 75 1015.2